Other Public Products
Issued by NWS Grand Forks, ND

Home | Current Version | Previous Version | Graphics & Text | Print | Product List | Glossary On
Versions: 1 2 3 4 5 6 7 8 9 10 11 12 13 14 15 16 17 18 19 20 21 22 23 24 25 26 27 28 29 30 31 32 33 34 35 36 37 38 39 40 41 42 43 44 45 46 47 48 49 50
000
FPUS83 KFGF 161631
OPUFGF
PRAIRIE TO PINES WEATHER ROUNDUP
NATIONAL WEATHER SERVICE EASTERN NORTH DAKOTA/GRAND FORKS ND
1100 AM CDT MON OCT 16 2017

 **SATELLITE DATA USED TO AUGMENT SKY COVER AT AUTOMATED STATIONS**
 *****  WEATHER ACROSS EASTERN NORTH DAKOTA  *****

CITY           SKY/WX    TMP DP  RH WIND       PRES   REMARKS
GRAND FORKS    FAIR      55  36  48 S17       29.91F
GRAND FORKS AF FAIR      56  33  42 S17       29.90F
GRAND CITY NWS NOT AVBL
BUXTON           N/A     53  37  54 S10         N/A
DEVILS LAKE    FAIR      52  35  52 SW17      29.90F
FARGO          FAIR      51  37  58 S14G23    30.01F
WAHPETON ARPT  NOT AVBL
$$

 *****  WEATHER ACROSS CENTRAL AND WESTERN NORTH DAKOTA  *****

CITY           SKY/WX    TMP DP  RH WIND       PRES   REMARKS
JAMESTOWN      FAIR      59  33  37 SW20      29.96F
BISMARCK       FAIR      59  33  37 W15G22    29.99F
MINOT          FAIR      59  35  40 SW20      29.88S
MINOT AFB      FAIR      57  35  44 W21G28    29.86S
GARRISON         N/A     55  36  48 W14       29.93F
WILLISTON      FAIR      53  36  52 SW13      29.94S
DICKINSON      FAIR      56  31  38 W20       29.99S
HETTINGER      FAIR      51  30  44 W10       30.06S
$$

 *****  OTHER OBSERVATIONS NORTHEAST NORTH DAKOTA  *****

CITY           SKY/WX    TMP DP  RH WIND       PRES   REMARKS
WALHALLA       FAIR     N/A N/A N/A W13G21    29.81F
LANGDON        FAIR      54  34  47 SW23      29.85F
CAVALIER       FAIR      57  37  47 SW10G21   29.83F
GRAFTON        NOT AVBL
CANDO          FAIR      55  34  44 W20G25    29.88F
FORT TOTTEN    NOT AVBL
ROLLA          FAIR      50  32  50 W15       29.84S
RUGBY          FAIR      55  36  47 W13       29.87S
 ***** THE ABOVE OBSERVATIONS ARE NON NWS ARE NOT QUALITY
        CONTROLLED AND MAY MIS-REPORT RAIN FOR SNOW...
$$

 *****  OTHER OBSERVATIONS SOUTHEAST NORTH DAKOTA *****

CITY           SKY/WX    TMP DP  RH WIND       PRES   REMARKS
COOPERSTOWN    FAIR      57  34  41 SW18G26   29.95S
VALLEY CITY    FAIR      55  34  44 SW23G31   29.98
OAKES          NOT AVBL
GWINNER          N/A     55  37  50 SW16      30.03F
BUFFALO          N/A     57  30  36 SW18        N/A
WYNDMERE       NOT AVBL
 ***** THE ABOVE OBSERVATIONS ARE NON NWS ARE NOT QUALITY
       CONTROLLED AND MAY MIS-REPORT RAIN FOR SNOW...
$$

  *****  WEATHER ACROSS NORTHERN MINNESOTA  *****

CITY           SKY/WX    TMP DP  RH WIND       PRES   REMARKS
FLAG ISLAND    FAIR      52  36  54 S15G23    29.89F
WARROAD        FAIR      52  37  58 S12G18    29.93F
ROSEAU           N/A     52  37  58 S16       29.91F
HALLOCK        FAIR      52  36  54 S18       29.87F
THF RVR FALLS  FAIR      51  32  48 S21       29.96F
HALSTAD          N/A     53  36  51 S20         N/A
FOSSTON        FAIR      54  32  43 S25       30.00F
BAUDETTE       FAIR      49  35  58 SW13      29.97F
WASKISH        FAIR      55  36  47 SW13G20   29.99F
CROOKSTON      FAIR      54  36  50 S20G26    29.95F
$$
  *****  WEATHER ACROSS CENTRAL AND WEST MINNESOTA  *****

CITY           SKY/WX    TMP DP  RH WIND       PRES   REMARKS
BEMIDJI        FAIR      53  34  48 S9        30.02F
PARK RAPIDS    FAIR      51  37  58 S12       30.07F
WADENA         FAIR      54  36  50 S12       30.08F
DETROIT LAKES  FAIR      54  34  47 SW16      30.05F
MOORHEAD       FAIR      50  37  62 S13G18    30.03F
FERGUS FALLS   FAIR      54  37  54 S14       30.09F
ELBOW LAKE     FAIR      53  37  53 S13G18    30.11F
MORRIS MN      FAIR      55  37  50 S14G20    30.11F
STAPLES        FAIR      54  34  47 SW9       30.10F
WHEATON        FAIR      57  36  44 S12       30.09F
$$
  *****  WEATHER ELSEWHERE ACROSS MINNESOTA  *****

CITY           SKY/WX    TMP DP  RH WIND       PRES   REMARKS
DULUTH         FAIR      50  39  66 SW12      30.11F
INTRNTL FALLS  FAIR      48  35  60 SW7       30.02F
ELY            FAIR      46  34  61 SW12      30.07F
CLOQUET        FAIR      52  37  58 S10G16    30.11F
BRAINERD       FAIR      50  37  61 SW12      30.14F
HIBBING        FAIR      47  37  68 SW7       30.09F
ALEXANDRIA     FAIR      52  36  54 S13       30.14F
SAINT CLOUD    FAIR      52  38  58 SW10      30.18F
MINNEAPOLIS    FAIR      50  37  61 SW9       30.23F
$$

  *****  WEATHER ACROSS SOUTH DAKOTA  *****

CITY           SKY/WX    TMP DP  RH WIND       PRES   REMARKS
SIOUX FALLS    FAIR      56  39  53 S7        30.21F
BROOKINGS      FAIR      54  38  54 S14       30.17F
WATERTOWN      FAIR      53  39  59 S14       30.11F
HURON          FAIR      52  37  56 S9        30.12F
SISSETON         N/A     59  36  42 SW14G26   30.05F
ABERDEEN       FAIR      50  37  61 SW9       30.08F
MITCHELL       FAIR      57  40  52 S10       30.15F
PIERRE         FAIR      48  33  56 W9        30.09F
MOBRIDGE       FAIR      52  37  56 S7        30.03F
RAPID CITY     FAIR      62  31  31 W5        30.13S
$$

  *****  SOME WEATHER IN NEARBY STATES *****

CITY           SKY/WX    TMP DP  RH WIND       PRES   REMARKS
GLASGOW MT     FAIR      53  36  52 W8        30.00R
GREAT FALLS MT FAIR      57  19  22 SW25      30.14R
CHEYENNE WY    FAIR      58   9  14 W16       30.32R
SCOTTSBLUFF NE FAIR      47  32  56 VRB3      30.23F
OMAHA NE       FAIR      58  41  53 S8        30.32F
DES MOINES IA  FAIR      57  42  57 S5        30.33F
DAVENPORT IA   FAIR      54  42  64 SW5       30.35S
CHICAGO IL     FAIR      55  39  54 SW7       30.31S
EAU CLAIRE WI  FAIR      51  40  65 S10       30.22F
LA CROSSE WI   FAIR      51  42  71 S9        30.26F
$$

  *****  SOME NATIONAL WEATHER *****

CITY           SKY/WX    TMP DP  RH WIND       PRES   REMARKS
LA GUARDIA NY  PTSUNNY   57  43  59 NW18      30.02R
RALEIGH NC     CLOUDY    57  56  96 VRB5      30.10S
ATLANTA GA     PTSUNNY   59  50  72 NW17G26   30.15S
NEW ORLEANS LA CLOUDY    65  61  87 N9G22     30.17S
OKLAHOMA CITY  FAIR      61  33  35 SE5       30.45S
ALBUQUERQUE NM FAIR      51  25  36 NW5       30.52R
SALT LAKE CITY PTSUNNY   47  28  47 CALM      30.44R
LOS ANGELES CA FAIR      78  37  22 CALM      30.07S
BOISE ID       FAIR      43  29  57 CALM      30.40R
SEATTLE WA     PTSUNNY   48  47  96 SW5       30.24R
$$

*** WEATHER ACROSS MANITOBA...SASKATCHEWAN AND ONTARIO ***
                ***ONTARIO***

CITY           SKY/WX    TMP DP  RH WIND       PRES   REMARKS
GERALDTON      PTSUNNY   46  36  66 W10G18    29.99S
THUNDER BAY    PTSUNNY   48  37  66 W8        30.05F
SIOUX LOOKOUT  CLOUDY    45  36  70 S6        29.95F
TORONTO        PTSUNNY   45  34  65 N10       30.23R
BIG TROUT LK   CLOUDY    39  34  81 SW7       29.81F
PICKLE LAKE    CLOUDY    39  34  81 SW7       29.93S
DRYDEN         CLOUDY    43  37  81 SW9       29.95F
KENORA         PTSUNNY   48  36  61 SW14G22   29.91F
$$
                *** MANITOBA***

CITY           SKY/WX    TMP DP  RH WIND       PRES   REMARKS
BRANDON        MOSUNNY   48  34  57 W14       29.81S
DAUPHIN        SUNNY     52  34  50 W18G25    29.72F
ISLAND LAKE    LGT RAIN  39  36  87 S14G22    29.65F
PILOT MOUND      N/A     50  34  53 SW16        N/A
THE PAS        MOSUNNY   50  34  53 W15G22    29.55S
THOMPSON       LGT RAIN  39  37  93 S8        29.45F FOG
WINNIPEG       PTSUNNY   46  32  57 S16       29.82F
LYNN LAKE      CLOUDY    39  39 100 SW9       29.35F
CHURCHILL      PTSUNNY   27  27 100 SE3       29.64F
GILLAM         LGT SNOW  32  32 100 SE7       29.58F VSB 1
$$
                ***SASKATCHEWAN***

CITY           SKY/WX    TMP DP  RH WIND       PRES   REMARKS
ESTEVAN        PTSUNNY   52  34  50 W17       29.88R
KINDERSLEY     MOSUNNY   43  28  56 S3        29.90R
LLOYDMINSTER   PTSUNNY   48  32  53 NW14G22   29.81S
PRINCE ALBERT  PTSUNNY   54  34  47 NW18G31   29.75R
REGINA         MOSUNNY   48  34  57 NW10      29.87R
YORKTON        SUNNY     52  36  54 W10       29.78R
N. BATTLEFORD  SUNNY     52  32  46 W12G20    29.84R



USA.gov is the U.S. government's official web portal to all federal, state and local government web resources and services.